Station PBFW1 - Padilla Bay Farm, Padilla Bay Reserve, WA Image indicating link to RSS feed of recent meteorological observations for station PBFW1


Conditions at PBFW1 as of
(7:30 pm PDT on 07/22/2024)
0230 GMT on 07/23/2024:
     

Click on the graph icon in the table below to see a time series plot of the last five days of that observation.

5-day plot - Wind Direction Wind Direction (WDIR):SSW ( 210 deg true )
5-day plot - Wind Speed Wind Speed (WSPD): 2.9 kts
5-day plot - Atmospheric Pressure Atmospheric Pressure (PRES):30.15 in
5-day plot - Air Temperature Air Temperature (ATMP): 63.1 °F
5-day plot - Dew Point Dew Point (DEWP): 49.3 °F
5-day plot -  Wind Speed, Wind Gust and Atmospheric Pressure Combined plot of Wind Speed, Gust, and Air Pressure
Previous observations
TIME
(PDT)
5-day plot - Wind Direction
WDIR
 
5-day plot - Wind Speed
WSPD
kts
5-day plot - Wind Gust
GST
kts
5-day plot - Wave Height
WVHT
ft
5-day plot - Dominant Wave Period
DPD
sec
5-day plot - Average Wave Period
APD
sec
5-day plot - Mean Wave Direction
MWD
 
5-day plot - Atmospheric Pressure
PRES
in
5-day plot - Pressure Tendency
PTDY
in
5-day plot - Air Temperature
ATMP
°F
5-day plot - Water Temperature
WTMP
°F
5-day plot - Dew Point
DEWP
°F
5-day plot - Salinity
SAL
psu
5-day plot - Visibility
VIS
nmi
5-day plot - Tide (above MLLW)
TIDE
ft
2024-07-22 07:15 pm SW 6.0-----30.15- 63.3- 49.8---
2024-07-22 07:00 pmSSW 7.0-----30.15+0.03 63.1- 50.2---
2024-07-22 06:45 pm SW 7.0-----30.15- 63.3- 50.4---
2024-07-22 06:30 pm SW 8.0-----30.15- 63.3- 50.7---
2024-07-22 06:15 pmWSW 8.0-----30.15- 64.2- 50.7---
2024-07-22 06:00 pmWSW 7.0-----30.15+0.03 64.0- 51.4---
2024-07-22 05:45 pmWSW 8.0-----30.12- 64.0- 51.8---
2024-07-22 05:30 pmWSW 8.0-----30.12- 64.8- 52.2---
2024-07-22 05:15 pmWSW 8.0-----30.12- 65.1- 52.9---
2024-07-22 05:00 pmWSW 9.9-----30.12+0.00 65.3- 53.1---
2024-07-22 04:45 pmWSW 8.9-----30.12- 65.7- 52.9---
2024-07-22 04:30 pmWSW 9.9-----30.12- 65.7- 53.4---
2024-07-22 04:15 pmWSW 9.9-----30.12- 66.2- 54.3---
2024-07-22 04:00 pm W 8.9-----30.12+0.00 65.7- 54.1---
2024-07-22 03:45 pmWSW 9.9-----30.12- 65.8- 54.3---
2024-07-22 03:30 pm W 8.0-----30.12- 66.9- 54.5---
2024-07-22 03:15 pmWSW 7.0-----30.12- 66.9- 55.0---
2024-07-22 03:00 pmWSW 7.0-----30.12+0.00 67.3- 55.4---
2024-07-22 02:45 pmWSW 8.0-----30.12- 66.6- 54.7---
2024-07-22 02:30 pm W 8.0-----30.12- 66.2- 54.3---
2024-07-22 02:15 pmWSW 8.9-----30.12- 66.0- 54.5---
2024-07-22 02:00 pm W 7.0-----30.12+0.00 66.2- 54.7---
2024-07-22 01:45 pm W 8.9-----30.12- 65.7- 54.1---
2024-07-22 01:30 pm W 8.9-----30.12- 65.8- 54.0---
2024-07-22 01:15 pm W 8.0-----30.12- 66.0- 54.5---
2024-07-22 01:00 pmWSW 8.0-----30.12+0.03 65.8- 54.3---
2024-07-22 12:45 pm W 7.0-----30.12- 64.6- 54.0---
2024-07-22 12:30 pm W 8.0-----30.12- 64.0- 53.8---
2024-07-22 12:15 pm W 8.0-----30.12- 64.4- 54.5---
2024-07-22 12:00 pmWSW 8.0-----30.12+0.03 63.5- 54.5---
2024-07-22 11:45 am W 8.9-----30.12- 63.5- 54.5---
2024-07-22 11:30 am W 11.1-----30.12- 62.2- 54.0---
2024-07-22 11:15 am W 11.1-----30.12- 63.0- 54.7---
2024-07-22 11:00 am W 9.9-----30.12+0.03 62.8- 54.5---
2024-07-22 10:45 am W 8.9-----30.12- 62.8- 54.5---
2024-07-22 10:30 am W 9.9-----30.09- 62.4- 54.5---
2024-07-22 10:15 amWSW 8.0-----30.09- 63.3- 55.0---
2024-07-22 10:00 am SW 8.9-----30.09+0.00 62.8- 55.2---
2024-07-22 09:45 amWSW 8.0-----30.09- 62.1- 54.9---
2024-07-22 09:30 amWSW 8.9-----30.09- 61.3- 54.5---
2024-07-22 09:15 amWSW 8.9-----30.09- 61.3- 54.5---
2024-07-22 09:00 amWSW 7.0-----30.09+0.00 60.6- 54.9---
2024-07-22 08:45 amWSW 7.0-----30.09- 58.8- 54.3---
2024-07-22 08:30 amWSW 7.0-----30.09- 57.9- 54.5---
2024-07-22 08:15 amWSW 7.0-----30.09- 57.2- 54.0---
2024-07-22 08:00 amWSW 7.0-----30.09+0.00 56.8- 54.0---
2024-07-22 07:45 am SW 7.0-----30.09- 56.8- 54.0---
2024-07-22 07:30 am SW 7.0-----30.09- 56.7- 54.1---
2024-07-22 07:15 am SW 7.0-----30.09- 56.3- 53.8---
2024-07-22 07:00 am SW 7.0-----30.09+0.00 56.1- 53.6---
2024-07-22 06:45 am SW 6.0-----30.09- 56.1- 53.6---
2024-07-22 06:30 am SW 6.0-----30.09- 55.9- 53.6---
2024-07-22 06:15 am SW 5.1-----30.09- 55.9- 53.6---
2024-07-22 06:00 am SW 6.0-----30.09+0.00 55.9- 53.6---
2024-07-22 05:45 am SW 7.0-----30.09- 55.9- 53.6---
2024-07-22 05:30 am SW 6.0-----30.09- 55.9- 53.6---
2024-07-22 05:15 am SW 5.1-----30.09- 56.1- 53.6---
2024-07-22 05:00 am SW 6.0-----30.09+0.00 56.1- 53.6---
2024-07-22 04:45 amSSW 6.0-----30.09- 56.3- 53.8---
2024-07-22 04:30 am SW 5.1-----30.09- 56.5- 54.0---
2024-07-22 04:15 am SW 6.0-----30.09- 56.5- 54.0---
2024-07-22 04:00 am SW 7.0-----30.09+0.00 56.5- 54.0---
2024-07-22 03:45 amSSW 7.0-----30.09- 56.5- 54.0---
2024-07-22 03:30 am SW 7.0-----30.09- 56.5- 53.6---
2024-07-22 03:15 am SW 6.0-----30.09- 56.7- 53.8---
2024-07-22 03:00 am SW 7.0-----30.09+0.00 56.8- 54.0---
2024-07-22 02:45 amSSW 6.0-----30.09- 56.8- 53.6---
2024-07-22 02:30 amSSW 6.0-----30.09- 57.0- 53.8---
2024-07-22 02:15 amSSW 6.0-----30.09- 57.0- 53.8---
2024-07-22 02:00 amSSW 6.0-----30.09+0.03 57.2- 54.0---
2024-07-22 01:45 amSSW 7.0-----30.09- 57.4- 54.1---
2024-07-22 01:30 amSSW 5.1-----30.09- 57.4- 54.5---
2024-07-22 01:15 am S 6.0-----30.09- 57.2- 54.3---
2024-07-22 01:00 am S 6.0-----30.09+0.03 57.0- 54.1---
2024-07-22 12:45 amSSW 6.0-----30.09- 57.0- 54.1---
2024-07-22 12:30 amSSW 7.0-----30.09- 57.4- 54.1---
2024-07-22 12:15 amSSW 7.0-----30.09- 57.4- 54.0---
2024-07-22 12:00 am SW 8.0-----30.09+0.03 57.7- 54.3---
2024-07-21 11:45 pm SW 7.0-----30.09- 57.7- 54.3---
2024-07-21 11:30 pm SW 7.0-----30.09- 57.7- 54.3---
2024-07-21 11:15 pm SW 8.9-----30.06- 57.7- 54.3---
2024-07-21 11:00 pmWSW 9.9-----30.06+0.00 57.7- 54.0---
2024-07-21 10:45 pm SW 7.0-----30.06- 58.3- 54.1---
2024-07-21 10:30 pmWSW 8.0-----30.06- 58.5- 54.3---
2024-07-21 10:15 pmWSW 7.0-----30.06- 58.8- 54.7---
2024-07-21 10:00 pm SW 8.0-----30.06+0.00 59.4- 55.2---
2024-07-21 09:45 pmWSW 7.0-----30.06- 59.2- 55.4---
2024-07-21 09:30 pm S 1.9-----30.06- 58.8- 55.4---
2024-07-21 09:15 pm S 4.1-----30.06- 58.8- 55.6---
2024-07-21 09:00 pmSSW 5.1-----30.06+0.00 59.2- 55.8---
2024-07-21 08:45 pmSSW 5.1-----30.06- 59.2- 55.9---
2024-07-21 08:30 pm S 7.0-----30.06- 59.5- 56.1---
2024-07-21 08:15 pmSSW 8.0-----30.06- 60.3- 56.1---
2024-07-21 08:00 pmSSW 8.9-----30.06+0.00 61.0- 56.1---